Tracking 19644 objects as of 25-Apr-2019
HD Live streaming from Space Station
objects crossing your sky now

THORAD AGENA D DEB

Track THORAD AGENA D DEB now!
10-day predictions


NORAD ID: 5185
Int'l Code: 1970-025KB
Perigee: 894.0 km
Apogee: 1,000.0 km
Inclination: 99.6 °
Period: 103.8 minutes
Semi major axis: 7317 km
RCS: 0.0208 m2 (small)
Launch date: April 8, 1970
Source: United States (US)
Launch site: AIR FORCE WESTERN TEST RANGE (AFWTR)

Note: This is SATELLITE DEBRIS
aabbcc
Your satellite tracking list
Your tracking list is empty




NASA's NSSDC Master Catalog

Two Line Element Set (TLE):
1  5185U 70025KB  19114.41511992  .00000647  00000-0  58307-3 0  9994
2  5185  99.6177  48.8569 0072424 341.3696 139.3248 13.86801589439163
Source of the keplerian elements: AFSPC